Weather History for Farmington, NM

Change the Weather History Date:

Sunday, July 28, 2013

  Actual Average Record
Temperature  
Mean Temperature 76 °F -  
Max Temperature 87 °F 89 °F 99 °F (2000)
Min Temperature 64 °F 60 °F 49 °F (1981)
Cooling Degree Days 10    
Growing Degree Days 26 (Base 50)    
Moisture  
Dew Point 56 °F    
Average Humidity 57    
Maximum Humidity 81    
Minimum Humidity 18    
Precipitation  
Precipitation 0.08 in - - ()
Sea Level Pressure  
Sea Level Pressure 29.88 in    
Wind  
Wind Speed 6 mph (ENE)    
Max Wind Speed 16 mph    
Max Gust Speed 25 mph    
Visibility 10 miles    
Events Rain    
Averages and records for this station are not official NWS values.
T = Trace of Precipitation, MM = Missing Value Source: NWS Daily Summary

Daily Weather History Graph

Daily Weather History Graph

Search for Another Location

Airport:

Trip Planner

Search our weather history database for the weather conditions in past years. The results will help you decide how hot, cold, wet, or windy it might be!

Date:

Astronomy

Jul. 28, 2013 Rise Set
Actual Time 6:15 AM MDT 8:22 PM MDT
Civil Twilight 5:46 AM MDT 8:51 PM MDT
Nautical Twilight 5:11 AM MDT 9:26 PM MDT
Astronomical Twilight 4:33 AM MDT 10:04 PM MDT
Moon 11:58 PM MDT (7/28) 12:48 PM MDT (7/28)
Length of Visible Light 15h 04m
Length of Day
14h 06m
Waning Gibbous, 60% of the Moon is Illuminated
Jul 28
Waning Gibbous
Jul 29
Last Quarter
Aug 6
New
Aug 14
First Quarter
Aug 20
Full

Hourly Weather History & Observations

Time (MDT) Temp. Heat Index Dew Point Humidity Pressure Visibility Wind Dir Wind Speed Gust Speed Precip Events Conditions
12:53 AM 73.0 °F - 52.0 °F 48% 29.88 in 10.0 mi Calm Calm - N/A   Overcast
1:53 AM 69.1 °F - 59.0 °F 70% 29.88 in 10.0 mi East 4.6 mph - 0.02 in   Mostly Cloudy
2:53 AM 66.0 °F - 59.0 °F 78% 29.89 in 10.0 mi ENE 5.8 mph - N/A   Scattered Clouds
3:53 AM 66.0 °F - 60.1 °F 81% 29.88 in 10.0 mi East 9.2 mph - N/A   Overcast
4:53 AM 66.0 °F - 60.1 °F 81% 29.87 in 10.0 mi ENE 6.9 mph - N/A   Unknown
5:53 AM 64.9 °F - 59.0 °F 81% 29.88 in 10.0 mi East 8.1 mph - 0.00 in   Overcast
6:53 AM 64.9 °F - 57.9 °F 78% 29.89 in 10.0 mi East 8.1 mph - N/A   Mostly Cloudy
7:53 AM 66.9 °F - 57.9 °F 73% 29.90 in 10.0 mi East 3.5 mph - N/A   Overcast
8:53 AM 69.1 °F - 59.0 °F 70% 29.91 in 10.0 mi Calm Calm - N/A   Overcast
9:53 AM 73.0 °F - 57.9 °F 59% 29.91 in 10.0 mi Calm Calm - N/A   Mostly Cloudy
10:53 AM 75.9 °F - 55.9 °F 50% 29.91 in 10.0 mi Calm Calm - N/A   Mostly Cloudy
11:53 AM 73.9 °F - 57.9 °F 57% 29.92 in 10.0 mi WSW 15.0 mph - 0.00 in Rain Light Rain
12:53 PM 75.0 °F - 55.9 °F 51% 29.90 in 10.0 mi WSW 11.5 mph - 0.00 in   Partly Cloudy
1:53 PM 82.0 °F 81.3 °F 54.0 °F 38% 29.86 in 10.0 mi West 12.7 mph - N/A   Clear
2:53 PM 84.0 °F - 51.1 °F 32% 29.83 in 10.0 mi WNW 16.1 mph 25.3 mph N/A   Clear
3:53 PM 86.0 °F - 50.0 °F 29% 29.81 in 10.0 mi WSW 12.7 mph 19.6 mph N/A   Clear
4:53 PM 84.0 °F - 50.0 °F 31% 29.81 in 10.0 mi WSW 11.5 mph - N/A   Partly Cloudy
5:53 PM 82.9 °F - 46.0 °F 27% 29.81 in 10.0 mi WNW 10.4 mph 18.4 mph N/A   Mostly Cloudy
6:53 PM 71.1 °F - 57.0 °F 61% 29.88 in 10.0 mi South 4.6 mph - 0.08 in   Partly Cloudy
7:53 PM 71.1 °F - 60.1 °F 68% 29.88 in 10.0 mi Calm Calm - N/A   Partly Cloudy
8:53 PM 69.1 °F - 60.1 °F 73% 29.89 in 10.0 mi ESE 8.1 mph - N/A   Clear
9:53 PM 68.0 °F - 57.9 °F 70% 29.91 in 10.0 mi NE 4.6 mph - N/A   Scattered Clouds
10:53 PM 69.1 °F - 51.1 °F 53% 29.91 in 10.0 mi North 5.8 mph - N/A   Clear
11:53 PM 66.9 °F - 51.1 °F 57% 29.93 in 10.0 mi ENE 4.6 mph - N/A   Mostly Cloudy